Home   Weather   Okayama   Past weeks

Flag for Japan Past Weather in Okayama, Japan — Yesterday and Last 2 Weeks

Now
43 °F

Quite cool.


Feels Like: 41 °F
Forecast: 31 / 59 °F
Wind: 3 mph from Southwest

Location: Takamatsu

Current Time: Dec 3, 2016 at 5:05:20 am

Latest Report: Dec 3, 2016 at 4:00 am


Visibility: N/A

Pressure: 30.33 "Hg

Humidity: 83%

Dew Point: 38 °F

Location of OkayamaLocation

Past Weather in Okayama — Graph

°F

Okayama Temperature Yesterday

Maximum temperature yesterday: 58 °F (at 3:00 pm)
Minimum temperature yesterday: 46 °F (at 11:00 pm)
Average temperature yesterday: 53 °F

High & Low Weather Summary for the Past Weeks

 TemperatureHumidityPressure
High71 °F (Nov 19, 3:00 pm)97% (Nov 19, 3:00 am)30.48 "Hg (Nov 19, 3:00 am)
Low41 °F (Nov 26, 7:00 am)35% (Nov 24, 3:00 pm)29.87 "Hg (Nov 19, 1:00 pm)
Average56 °F71%30.14 "Hg
* Reported Nov 18 3:00 am — Dec 3 3:00 am, Okayama, Weather by CustomWeather, © 2016

Note: Actual official high and low records may vary slightly from our data, if they occured in-between our weather recording intervals... More about our weather records

Advertising

Okayama Weather History for the Previous 24 Hours

Scroll right to see more
 ConditionsComfort  
Time TempWeatherWind HumidityBarometerVisibility
3:00 am
Sat, Dec 3
43 °FPassing clouds.2 mph83%30.34 "Hg9 mi
2:00 am44 °FQuite cool.3 mph77%30.34 "HgN/A
12:00 am45 °FCool.3 mph74%30.33 "HgN/A
11:00 pm
Fri, Dec 2
46 °FCool.3 mph75%30.33 "HgN/A
10:00 pm47 °FCool.2 mph71%30.33 "HgN/A
8:00 pm49 °FCool.3 mph68%30.33 "HgN/A
7:00 pm51 °FCool.3 mph67%30.32 "HgN/A
6:00 pm53 °FPassing clouds.3 mph60%30.32 "Hg12 mi
5:00 pm55 °FRefreshingly cool.7 mph51%30.31 "HgN/A
4:00 pm56 °FRefreshingly cool.8 mph44%30.29 "HgN/A
3:00 pm58 °FPartly sunny.9 mph43%30.29 "Hg12 mi
2:00 pm57 °FRefreshingly cool.3 mph45%30.29 "HgN/A
1:00 pm56 °FRefreshingly cool.6 mph45%30.30 "HgN/A
12:00 pm55 °FPartly sunny.3 mph49%30.33 "Hg12 mi
11:00 am56 °FRefreshingly cool.2 mph49%30.35 "HgN/A
10:00 am54 °FCool.5 mph53%30.37 "HgN/A
9:00 am52 °FPassing clouds.2 mph65%30.37 "Hg9 mi
8:00 am47 °FCool.2 mph76%30.37 "HgN/A
7:00 am47 °FCool.3 mph75%30.36 "HgN/A
6:00 am50 °FPassing clouds.2 mph68%30.33 "Hg9 mi
Weather by CustomWeather, © 2016

See weather overviewHow to use our weather pages